Weather in Rambouillet

France     48˚38′49″N   1˚49′48″E
temp.,
°C
wind,
m/s
gust,
m/s
humid.,
%
clouds,
%
prec.,
mm/h
press.,
hPa
HPBL,
m
15 january, fri
fri1501:00+5˚nnw71288100 1.1 1018738
04:00+2˚n61090100 0.1 1021669
07:00+1˚n698199 0.1 1024794
10:00n698593 0.0 1027634
13:00+2˚nne577683 0.0 1028650
16:00+2˚nne57730 0.0 1029758
19:00ne378231 0.0 1030285
22:00ene237893 0.0 1031149
16 january, sat
sat1601:00−1˚sse118185 0.0 103121
04:00−1˚sw2280100 0.0 102971
07:00ssw3579100 0.0 1029369
10:00ssw5786100 0.2 1027438
13:00s61096100 2.1 1024365
16:00+1˚ssw81497100 4.0 1020537
19:00+4˚wsw71399100 5.9 1018391
22:00+5˚wnw51296100 0.1 1019405
17 january, sun
sun1701:00+4˚wnw4109496 0.1 1021284
04:00+3˚wnw369590 0.1 1022138
07:00+1˚wnw349695 0.1 102385
10:00+2˚w3595100 0.0 1025143
13:00+5˚wnw478594 0.0 1026641
16:00+5˚wnw368868 0.0 1025265
19:00+2˚wnw239277 0.0 102735
22:00+2˚w2294100 0.0 102722
18 january, mon
mon1801:00+2˚w2294100 0.0 102827
04:00+1˚wsw239380 0.0 102625
07:00sw239340 0.0 102740
10:00+1˚ssw359240 0.0 1026159
13:00+4˚ssw478153 0.0 1025532
16:00+4˚ssw48810 0.0 1023633
19:00+2˚s5118927 0.0 1022304
22:00+3˚s61290100 0.0 1020353
19 january, tue
tue1901:00+6˚ssw61296100 0.1 1018456
04:00+8˚sw71596100 0.2 1016591
07:00+9˚sw61395100 0.3 1015636
10:00+8˚sw71392100 0.0 1014770
13:00+9˚ssw71286100 0.0 1013820
16:00+10˚ssw71477100 0.0 10091015
19:00+8˚ssw81781100 0.0 1008782
22:00+8˚ssw101974100 0.0 1006966